Regional Weather Roundup
Issued by NWS

Home | Current Version | Previous Version | Text Only | Print | Product List | Glossary Off
Versions: 1 2 3 4 5 6 7 8 9 10 11 12 13 14 15 16 17 18 19 20 21 22 23 24 25 26 27 28 29 30 31 32 33 34 35 36 37 38 39 40 41 42 43 44 45 46 47 48 49 50

806
ASUS45 KCYS 221710
RWRWY

WYOMING REGIONAL WEATHER ROUNDUP
NATIONAL WEATHER SERVICE CHEYENNE WY
1100 AM MDT FRI SEP 22 2017

NOTE:  "FAIR" INDICATES FEW OR NO CLOUDS BELOW 12,000 FEET
WITH NO SIGNIFICANT WEATHER AND/OR OBSTRUCTIONS TO VISIBILITY.

WYZ001-221800-
YELLOWSTONE NATIONAL PARK

CITY           SKY/WX    TMP DP  RH WIND       PRES   REMARKS
LK YELLOWSTONE NOT AVBL
W YELLOWSTONE  NOT AVBL

$$
WYZ002>013-054>058-071-098>099-221800-
NORTHERN WYOMING

CITY           SKY/WX    TMP DP  RH WIND       PRES   REMARKS
JACKSON        PTSUNNY   41  37  86 SW7       29.88R
CODY           CLOUDY    35  33  92 NE9       29.97S WCI  28
GREYBULL       LGT RAIN  40  39  97 NW6       29.97S
WORLAND        CLOUDY    41  38  89 NW6       29.96S
SHERIDAN       CLOUDY    44  40  85 NW3       29.99R
BUFFALO        CLOUDY    42  37  82 N8        29.98F
GILLETTE       CLOUDY    45  37  73 NW17      29.95R
HULETT         CLOUDY    50  36  57 N8        29.93R
NEWCASTLE      FAIR      59  41  51 W10G22    29.86R

$$
WYZ014>020-022>026-101>103-221800-
CENTRAL WYOMING

CITY           SKY/WX    TMP DP  RH WIND       PRES   REMARKS
BIG PINEY      FAIR      47  35  63 S13       29.89S
PINEDALE       CLOUDY    43  36  75 SE12      29.92R
DUBOIS         CLOUDY    32  32 100 SE14      29.92R FOG     WCI  22
LANDER           N/A    N/A N/A N/A MISG      29.94R
RIVERTON       CLOUDY    40  38  93 N6        29.94R
CASPER         CLOUDY    47  33  58 VRB3      29.98S
DOUGLAS        FAIR      52  34  50 NW20G25   29.94R

$$
WYZ021-027>030-104>119-221800-
SOUTHERN WYOMING

CITY           SKY/WX    TMP DP  RH WIND       PRES   REMARKS
EVANSTON       PTSUNNY   40  38  93 SW8       29.90R WCI  34
KEMMERER         N/A     41  34  75 S3        29.91R
FORT BRIDGER   CLOUDY    45  41  85 W10       29.93R
ROCK SPRINGS   CLOUDY    42  39  89 NE10      29.90S
DIXON          FAIR      55  36  49 N10G20    29.94F
RAWLINS        PTSUNNY   50  34  54 VRB5      29.96R
SARATOGA       FAIR      48  34  57 N12G20    29.98R
LARAMIE        PTSUNNY   64  32  30 SW24G31   29.92R
CHEYENNE       FAIR      61  39  44 VRB6      29.89R
TORRINGTON     FAIR      60  36  40 NW12      29.84R
PINE BLUFFS    FAIR      59  39  47 NE8       29.86S

$$




USA.gov is the U.S. government's official web portal to all federal, state and local government web resources and services.